Heber, UT

11:34 AM MDT on July 27, 2017 (GMT -0600)
Heber

Weather History for K36U - May, 2013

Change the Weather History Date:

Wednesday, May 15, 2013

  Actual Average (KPVU) Record (KPVU)
Temperature  
Mean Temperature 60 °F -  
Max Temperature 80 °F 69 °F 87 °F (2012)
Min Temperature 41 °F 43 °F 37 °F (1983)
Degree Days  
Heating Degree Days 4    
Growing Degree Days 10 (Base 50)    
Moisture  
Dew Point 34 °F    
Average Humidity 43    
Maximum Humidity 87    
Minimum Humidity 16    
Precipitation  
Precipitation 0.00 in - - ()
Sea Level Pressure  
Sea Level Pressure 29.97 in    
Wind  
Wind Speed 5 mph (SSE)    
Max Wind Speed 22 mph    
Max Gust Speed 30 mph    
Visibility 10 miles    
Events      
Averages and records for this station are not official NWS values.
T = Trace of Precipitation, MM = Missing Value Source: NWS Daily Summary

Daily Weather History Graph

Daily Weather History Graph

Search for Another Location

Airport or City:

Trip Planner

Search our weather history database for the weather conditions in past years. The results will help you decide how hot, cold, wet, or windy it might be!

Date:

Astronomy

May. 15, 2013 Rise Set
Actual Time 6:08 AM MDT 8:35 PM MDT
Civil Twilight 5:38 AM MDT 9:06 PM MDT
Nautical Twilight 4:59 AM MDT 9:45 PM MDT
Astronomical Twilight 4:16 AM MDT 10:28 PM MDT
Moon 10:48 AM MDT (5/15) 12:24 AM MDT (5/15)
Length of Visible Light 15h 28m
Length of Day
14h 26m
Waxing Crescent, 27% of the Moon is Illuminated
May 15
Waxing Crescent
May 17
First Quarter
May 24
Full
May 31
Last Quarter
Jun 8
New

Hourly Weather History & Observations

Time (MDT) Temp. Windchill Dew Point Humidity Pressure Visibility Wind Dir Wind Speed Gust Speed Precip Events Conditions
12:35 AM 48.2 °F - 35.6 °F 62% 29.99 in 10.0 mi Calm Calm - N/A   Clear
12:55 AM 46.4 °F 45.2 °F 35.6 °F 66% 29.99 in 10.0 mi SE 3.5 mph - N/A   Clear
1:15 AM 46.4 °F 44.3 °F 35.6 °F 66% 29.99 in 10.0 mi ESE 4.6 mph - N/A   Clear
1:35 AM 44.6 °F - 35.6 °F 71% 29.99 in 10.0 mi Calm Calm - N/A   Clear
1:55 AM 48.2 °F - 35.6 °F 62% 30.01 in 10.0 mi South 6.9 mph - N/A   Clear
2:15 AM 50.0 °F - 35.6 °F 58% 30.01 in 10.0 mi ENE 10.4 mph - N/A   Clear
2:35 AM 50.0 °F - 33.8 °F 54% 30.01 in 10.0 mi East 10.4 mph - N/A   Clear
2:55 AM 44.6 °F 42.2 °F 35.6 °F 71% 30.02 in 10.0 mi West 4.6 mph - N/A   Clear
3:15 AM 44.6 °F - 37.4 °F 76% 30.02 in 10.0 mi Calm Calm - N/A   Clear
3:35 AM 42.8 °F 39.3 °F 35.6 °F 76% 30.03 in 10.0 mi SSE 5.8 mph - N/A   Clear
3:55 AM 42.8 °F 39.3 °F 35.6 °F 76% 30.03 in 10.0 mi ESE 5.8 mph - N/A   Clear
4:15 AM 44.6 °F 43.1 °F 35.6 °F 71% 30.02 in 10.0 mi ESE 3.5 mph - N/A   Clear
4:35 AM 46.4 °F - 35.6 °F 66% 30.03 in 10.0 mi Calm Calm - N/A   Clear
4:55 AM 46.4 °F - 35.6 °F 66% 30.02 in 10.0 mi Calm Calm - N/A   Clear
5:15 AM 42.8 °F - 37.4 °F 81% 30.02 in 10.0 mi Calm Calm - N/A   Clear
5:35 AM 44.6 °F - 37.4 °F 76% 30.02 in 10.0 mi Calm Calm - N/A   Clear
5:55 AM 41.0 °F 39.0 °F 35.6 °F 81% 30.03 in 10.0 mi East 3.5 mph - N/A   Clear
6:15 AM 41.0 °F 39.0 °F 37.4 °F 87% 30.03 in 10.0 mi SSE 3.5 mph - N/A   Clear
6:35 AM 41.0 °F - 35.6 °F 81% 30.04 in 10.0 mi Calm Calm - N/A   Clear
6:55 AM 42.8 °F 41.1 °F 37.4 °F 81% 30.05 in 10.0 mi SE 3.5 mph - N/A   Clear
7:15 AM 46.4 °F - 37.4 °F 71% 30.05 in 10.0 mi Calm Calm - N/A   Clear
7:35 AM 46.4 °F 45.2 °F 41.0 °F 81% 30.05 in 10.0 mi ESE 3.5 mph - N/A   Clear
7:55 AM 51.8 °F - 37.4 °F 58% 30.05 in 10.0 mi Calm Calm - N/A   Clear
8:15 AM 51.8 °F - 37.4 °F 58% 30.05 in 10.0 mi Calm Calm - N/A   Clear
8:35 AM 51.8 °F - 39.2 °F 62% 30.05 in 10.0 mi Calm Calm - N/A   Clear
8:55 AM 53.6 °F - 41.0 °F 62% 30.05 in 10.0 mi Calm Calm - N/A   Clear
9:15 AM 55.4 °F - 37.4 °F 51% 30.05 in 10.0 mi Calm Calm - N/A   Clear
9:35 AM 59.0 °F - 37.4 °F 45% 30.05 in 10.0 mi Calm Calm - N/A   Clear
9:55 AM 62.6 °F - 33.8 °F 34% 30.04 in 10.0 mi Calm Calm - N/A   Clear
10:15 AM 64.4 °F - 33.8 °F 32% 30.03 in 10.0 mi Calm Calm - N/A   Clear
10:35 AM 68.0 °F - 35.6 °F 30% 30.02 in 10.0 mi Calm Calm - N/A   Clear
10:55 AM 69.8 °F - 37.4 °F 31% 30.01 in 10.0 mi Calm Calm - N/A   Clear
11:15 AM 71.6 °F - 35.6 °F 27% 30.00 in 10.0 mi Calm Calm - N/A   Clear
11:35 AM 73.4 °F - 33.8 °F 23% 29.99 in 10.0 mi Calm Calm - N/A   Clear
11:55 AM 77.0 °F - 33.8 °F 21% 29.98 in 10.0 mi Calm Calm - N/A   Clear
12:15 PM 78.8 °F - 32.0 °F 18% 29.97 in 10.0 mi WSW 4.6 mph - N/A   Clear
12:35 PM 78.8 °F - 30.2 °F 17% 29.95 in 10.0 mi SW 4.6 mph - N/A   Clear
12:55 PM 78.8 °F - 30.2 °F 17% 29.94 in 10.0 mi SW 16.1 mph - N/A   Clear
1:15 PM 80.6 °F - 30.2 °F 16% 29.94 in 10.0 mi SW 18.4 mph 21.9 mph N/A   Clear
1:35 PM 75.2 °F - 30.2 °F 19% 29.94 in 10.0 mi SW 21.9 mph 26.5 mph N/A   Clear
1:55 PM 73.4 °F - 30.2 °F 20% 29.94 in 10.0 mi SW 15.0 mph - N/A   Mostly Cloudy
2:15 PM 78.8 °F - 28.4 °F 16% 29.93 in 10.0 mi SW 10.4 mph - N/A   Scattered Clouds
2:35 PM 78.8 °F - 30.2 °F 17% 29.92 in 10.0 mi WSW 16.1 mph - N/A   Clear
2:55 PM 78.8 °F - 30.2 °F 17% 29.92 in 10.0 mi SW 13.8 mph - N/A   Clear
3:15 PM 77.0 °F - 30.2 °F 18% 29.91 in 10.0 mi SW 11.5 mph 21.9 mph N/A   Clear
3:35 PM 77.0 °F - 30.2 °F 18% 29.90 in 10.0 mi SW 12.7 mph - N/A   Clear
3:55 PM 78.8 °F - 28.4 °F 16% 29.90 in 10.0 mi SW 12.7 mph 18.4 mph N/A   Clear
4:15 PM 77.0 °F - 30.2 °F 18% 29.90 in 10.0 mi South 18.4 mph 24.2 mph N/A   Scattered Clouds
4:35 PM 73.4 °F - 32.0 °F 22% 29.90 in 10.0 mi SSE 20.7 mph 29.9 mph N/A   Scattered Clouds
4:55 PM 77.0 °F - 30.2 °F 18% 29.90 in 10.0 mi SSE 18.4 mph 24.2 mph N/A   Clear
5:15 PM 75.2 °F - 30.2 °F 19% 29.88 in 10.0 mi SSE 12.7 mph 24.2 mph N/A   Clear
5:35 PM 77.0 °F - 30.2 °F 18% 29.88 in 10.0 mi SSE 10.4 mph 17.3 mph N/A   Clear
5:55 PM 77.0 °F - 28.4 °F 17% 29.88 in 10.0 mi SSE 11.5 mph - N/A   Clear
6:15 PM 75.2 °F - 28.4 °F 18% 29.87 in 10.0 mi South 5.8 mph - N/A   Clear
6:35 PM 77.0 °F - 28.4 °F 17% 29.87 in 10.0 mi South 8.1 mph - N/A   Clear
6:55 PM 75.2 °F - 30.2 °F 19% 29.87 in 10.0 mi South 10.4 mph 16.1 mph N/A   Scattered Clouds
7:15 PM 73.4 °F - 30.2 °F 20% 29.87 in 10.0 mi SSW 8.1 mph 26.5 mph N/A   Scattered Clouds
7:35 PM 71.6 °F - 30.2 °F 22% 29.88 in 10.0 mi West 9.2 mph - N/A   Scattered Clouds
7:55 PM 68.0 °F - 33.8 °F 28% 29.89 in 10.0 mi WNW 4.6 mph 17.3 mph N/A   Scattered Clouds
8:15 PM 66.2 °F - 32.0 °F 28% 29.90 in 10.0 mi Calm Calm - N/A   Scattered Clouds
8:35 PM 66.2 °F - 32.0 °F 28% 29.90 in 10.0 mi Calm Calm - N/A   Clear
8:55 PM 60.8 °F - 35.6 °F 39% 29.90 in 10.0 mi SSE 4.6 mph - N/A   Clear
9:15 PM 59.0 °F - 37.4 °F 45% 29.91 in 10.0 mi East 9.2 mph - N/A   Clear
9:35 PM 60.8 °F - 35.6 °F 39% 29.92 in 10.0 mi East 11.5 mph - N/A   Clear
9:55 PM 57.2 °F - 35.6 °F 44% 29.92 in 10.0 mi East 9.2 mph - N/A   Clear
10:15 PM 59.0 °F - 35.6 °F 42% 29.93 in 10.0 mi ENE 4.6 mph - N/A   Clear
10:35 PM 53.6 °F - 37.4 °F 54% 29.93 in 10.0 mi ESE 5.8 mph - N/A   Scattered Clouds
10:55 PM 55.4 °F - 35.6 °F 47% 29.93 in 10.0 mi ENE 5.8 mph - N/A   Mostly Cloudy
11:15 PM 53.6 °F - 37.4 °F 54% 29.93 in 10.0 mi ESE 8.1 mph - N/A   Scattered Clouds
11:35 PM 55.4 °F - 35.6 °F 47% 29.92 in 10.0 mi East 5.8 mph - N/A   Clear
11:55 PM 55.4 °F - 37.4 °F 51% 29.92 in 10.0 mi Calm Calm - N/A   Mostly Cloudy